Regional Weather Roundup
Issued by NWS Charleston, SC

Current Version | Previous Version | Graphics & Text | Print | Product List | Glossary On
Versions: 1 2 3 4 5 6 7 8 9 10 11 12 13 14 15 16 17 18 19 20 21 22 23 24 25 26 27 28 29 30 31 32 33 34 35 36 37 38 39 40 41 42 43 44 45 46 47 48 49 50
000
ASUS42 KCHS 270312
RWRCHS

REGIONAL WEATHER ROUNDUP
NATIONAL WEATHER SERVICE CHARLESTON SC
1100 PM EDT SUN MAR 26 2017

NOTE: "FAIR" INDICATES FEW OR NO CLOUDS BELOW 12,000 FEET WITH NO
SIGNIFICANT WEATHER AND/OR OBSTRUCTIONS TO VISIBILITY.

NOT ALL STATIONS ARE QUALITY CONTROLLED. USE DATA WITH CAUTION...
ESPECIALLY DEWPOINT OBSERVATIONS.

SCZ027-030-031-034>040-042>050-270400-
...SOUTHEAST SOUTH CAROLINA...

CITY           SKY/WX    TMP DP  RH WIND       PRES   REMARKS
N CHARLESTON   PTCLDY    62  55  77 S6        30.17S
WATERFRONT PRK   N/A     66  61  84 S7        30.16R
JOHNS ISLAND   FAIR      64  61  88 S6        30.18R
PINOPOLIS        N/A     66  59  77 CALM      30.08R
MONCKS CORNER  FAIR      63  55  77 CALM      30.17S
SUMMERVILLE    FAIR      63  57  82 CALM      30.18S
BEAUFORT MCAS  CLEAR     66  63  90 S3        30.16F
BEAUFORT ARPT  FAIR      63  61  94 CALM      30.16F
HILTON HEAD IS CLEAR     64  63  94 S5        30.17F
WALTERBORO     CLEAR     63  59  88 SE3       30.17S
ALLENDALE      FAIR      64  59  82 SE6       30.14S

...SOUTHERN MIDLANDS AND PEE DEE...

CITY           SKY/WX    TMP DP  RH WIND       PRES   REMARKS
GEORGETOWN     FAIR      57  57 100 CALM      30.19S
KINGSTREE      CLOUDY    63  54  72 E5        30.17S
ORANGEBURG     PTCLDY    64  57  78 S7        30.16R
BARNWELL       FAIR      66  59  77 S7        30.15S
AIKEN          FAIR      63  55  77 SE8       30.16S
MANNING        FAIR      63  55  77 CALM      30.17S
COLUMBIA       CLEAR     68  57  68 S14       30.13R
SUMTER         CLEAR     65  55  70 S7        30.13S
FLORENCE       PTCLDY    64  59  83 SE8       30.17S
MYRTLE BEACH   CLEAR     64  58  80 S10         N/A
N MYRTLE BEACH CLEAR     66  58  75 S7        30.18S

$$

GAZ063-065-086>088-099>101-113>116-118-119-134>141-150-270400-
...SOUTHEAST GEORGIA...

CITY           SKY/WX    TMP DP  RH WIND       PRES   REMARKS
SAVANNAH ARPT  CLEAR     66  58  75 SE8       30.15F
HUNTER AAF     CLEAR     65  63  91 SE3       30.13F
FORT STEWART   CLEAR     61  58  89 SE3       30.13S
STATESBORO     PTCLDY    67  61  81 S5        30.15R
SYLVANIA       CLEAR    N/A N/A N/A S3        30.16S
CLAXTON        FAIR     N/A N/A N/A CALM      30.15R

...CSRA...CENTRAL AND FAR SOUTHEAST GEORGIA...

CITY           SKY/WX    TMP DP  RH WIND       PRES   REMARKS
THOMSON        PTCLDY    67  59  74 S8        30.15F
AUGUSTA-BUSH   MOCLDY    69  59  70 SE10      30.12R
AUGUSTA-DANIEL MOCLDY    69  57  65 SE10      30.13R
SWAINSBORO     FAIR      68  59  73 SE9       30.13F
VIDALIA        CLEAR     68  59  73 SE6       30.13S
EASTMAN        FAIR      71  49  45 SE7       30.13R
HAZLEHURST     FAIR      69  62  79 SE6       30.12S
ALMA           CLEAR     67  60  78 SE7       30.13R
WAYCROSS       CLEAR     69  64  82 SE5       30.14R
JESUP          FAIR      64  59  82 SE3       30.15S
BAXLEY         FAIR      68  64  88 SE5       30.13S
BRUNSWICK      CLEAR     68  63  83 SE5       30.16S
SAINT SIMONS   CLEAR     66  61  84 SE8       30.15R

$$

SCZ027-028-034-036>038-045-046-048>050-GAZ119-141-270400-
...LAKE AND SUPPLEMENTAL COASTAL OBSERVATIONS...

STATION/POSITION TIME  TEMP    WIND        PRES    WAVE   SWELL
                       AIR SEA DIR/SP/G            HT/PER HT/PER/DIR
                 (UTC) (F)     (DEG/KT/KT) (MB)    (FT/S) (FT/S/D)
WINYAH BAY       0145   64     160/  5     1022.0
LAKE MURRAY      0220   66     160/  8/ 10 1019.6R
ACE BASIN NERRS  NOT AVBL
FORT PULASKI     0248   64 63  140/  5/  7 1021.6S
SAPELO ISLAND    0200   66     130/  7     1021.0

$$

ANZ835-935-AMZ111-154-330-350-352-354-370-450-454-472-270400-
...C-MAN AND BUOY OBSERVATIONS...

STATION/POSITION TIME  TEMP    WIND        PRES    WAVE   SWELL
                       AIR SEA DIR/SP/G            HT/PER HT/PER/DIR
                 (UTC) (F)     (DEG/KT/KT) (MB)    (FT/S) (FT/S/D)
BUOY 41004       0150   72 74  140/ 14/ 16 1021.4    4/ 7   3/130/ 7
BUOY 41008       0250   65 63  130/  6/  8 1020.9R   4/11   3/110/11
FOLLY BEACH CMAN 0200   65     150/  8/  9 1022.1R
CAPERS NEARSHORE 0208   64     170/  4/  8 1021.6R
FRIPP NEARSHORE  0208   63 61  180/  4/  6 1021.1R


STATION/POSITION TIME  TEMP    WIND        PRES    WAVE   SWELL
                       AIR SEA DIR/SP/G            HT/PER HT/PER/DIR
                 (UTC) (F)     (DEG/KT/KT) (MB)    (FT/S) (FT/S/D)
5E ST. MARYS GA  0230      65                N/A     3/11   2/110/11
FRYING PAN BUOY  0250   71 76  140/ 12/ 17 1022.6R   4/10   3/140/10
BUOY 41025       0250   69 76  160/ 14/ 16 1023.6F   4/ 9   3/110/ 9
CAPE LOOKOUT NC  0200   67     140/ 11/ 12 1022.9R
BUOY 41002       0250   69 72   90/ 10/ 14 1023.6R   5/10   5/130/10
BUOY 41010       NOT AVBL
ST AUGUSTINE FL  0300   68 70  130/  7/  8 1021.5F


$$



USA.gov is the U.S. government's official web portal to all federal, state and local government web resources and services.